Location: *
(37.5724°S, 58.0067°E)
Time: 11:42:56
(UTC+00:00)

Lacrosse 5 - Pass Details

Date: 18 January 2021
Orbit: 715 x 724 km, 57.0° (Epoch: 22 February)

Event Time Altitude Azimuth Distance (km) Brightness Sun altitude
Exits shadow 19:57:56 22° 123° (ESE) 1,562 3.8 -31.9°
Drops below altitude 10° 19:59:49 10° 130° (SE) 2,238 4.8 -31.9°
Sets 20:02:16 0° 134° (SE) 3,166 5.7 -31.9°
